EHI
7 4 2 1 0 0 0 0 0 0 0 0 0 0 0 0 0 0 1 4 6 6 4 4 6 8 8 8 9 8 5 5 7 9 9 9 10 9 9 8 7 7 6 6 8 9 10 9 8
4 3 2 2 1 0 0 0 0 0 0 0 0 0 0 0 0 0 1 3 5 5 4 4 6 9 9 10 11 9 6 6 7 8 8 8 8 8 7 7 6 4 4 4 6 8 9 8 7
2 2 3 3 2 0 0 0 0 0 0 0 0 0 0 0 0 0 1 3 4 4 4 5 8 10 11 12 12 10 7 6 7 8 7 7 6 6 6 6 4 2 2 4 5 7 7 6 5
2 4 4 2 1 0 0 0 0 0 0 1 0 0 0 0 0 0 1 2 3 3 4 7 11 14 14 14 13 10 6 6 7 9 8 7 7 7 7 5 3 1 2 4 7 7 6 5 4
2 4 4 1 0 0 0 0 0 0 1 1 0 0 0 0 0 0 0 1 1 2 3 7 14 17 16 14 12 9 6 6 7 9 9 7 7 8 7 4 2 1 2 5 8 7 6 5 5
2 3 3 1 0 0 0 0 0 1 1 1 0 0 0 1 2 2 1 0 0 1 1 4 10 14 14 12 9 7 5 4 6 7 8 7 6 7 7 4 3 3 5 6 7 7 7 7 7
3 2 2 1 0 0 0 0 0 1 2 1 0 0 0 2 4 4 3 1 0 0 0 1 3 6 8 7 5 4 3 2 3 5 6 5 5 7 7 5 5 7 8 8 9 9 7 6 6
6 3 1 0 0 0 0 0 1 3 4 3 1 0 0 3 5 5 2 0 0 0 0 0 0 1 2 2 2 2 1 0 1 3 4 4 4 6 7 6 6 8 9 10 10 10 7 5 5
8 5 2 0 0 0 1 1 2 5 6 4 2 1 2 4 5 4 2 0 0 0 0 0 0 0 0 0 0 1 1 0 1 3 4 4 3 3 4 5 7 9 10 10 10 10 8 6 5
9 7 3 1 0 1 2 2 3 5 6 4 4 4 4 5 5 4 2 1 0 0 0 0 0 0 0 0 0 0 0 0 1 2 4 4 2 1 1 4 7 9 9 7 7 7 7 5 4
10 8 4 1 0 1 1 2 2 3 3 4 4 5 6 6 5 3 3 2 1 1 0 0 0 0 0 0 0 0 0 0 0 1 2 2 1 0 0 1 3 5 4 3 2 2 2 2 1
8 7 4 1 0 0 1 2 2 3 4 6 7 7 9 9 7 5 5 4 3 1 0 1 0 0 0 0 0 0 0 0 0 0 1 2 2 1 0 0 0 1 1 0 0 0 0 0 0
5 3 2 1 0 1 3 4 5 6 8 10 10 9 10 11 10 9 7 6 5 2 2 3 2 1 1 1 1 1 1 0 1 1 2 3 3 1 0 0 0 0 0 0 0 0 0 0 0
1 1 1 0 0 2 4 6 8 11 13 13 11 9 10 12 13 12 9 7 6 4 4 5 5 3 3 3 3 3 2 2 2 3 4 5 5 3 2 0 0 0 0 0 0 0 0 0 0
0 0 0 0 0 1 3 5 9 13 15 14 12 10 9 11 13 13 10 7 5 6 6 7 7 6 5 5 5 5 4 4 5 5 6 8 7 6 4 2 0 0 0 0 0 0 0 0 0
0 0 0 0 0 1 2 4 7 11 13 13 13 12 10 11 12 12 11 8 7 8 10 10 9 8 7 6 6 6 6 6 6 7 8 9 8 7 6 3 1 0 0 0 0 0 0 0 0
0 0 0 0 0 1 2 3 6 8 10 12 13 13 13 12 13 13 13 13 13 12 12 12 12 10 9 7 7 6 6 6 6 7 8 8 7 7 6 5 3 1 1 0 0 0 0 0 0
0 0 0 0 1 3 3 3 5 7 9 10 11 14 17 17 17 18 18 19 19 17 14 13 13 12 10 9 7 6 5 5 6 6 6 6 6 6 6 4 3 3 2 1 0 0 0 0 0
0 0 0 1 3 4 4 4 4 6 9 11 12 16 21 21 22 25 25 24 25 21 17 14 13 13 12 10 9 8 6 5 5 6 5 5 5 6 6 4 3 3 3 1 0 0 0 0 0
0 0 1 2 3 4 4 4 4 6 10 13 15 18 22 24 26 30 30 27 27 25 20 17 15 15 14 13 12 11 8 5 5 5 4 4 4 5 5 4 3 4 3 2 1 0 0 0 0
0 0 1 2 3 3 3 3 4 7 11 15 17 17 21 25 28 30 31 29 28 28 25 20 18 18 17 16 16 15 11 8 6 4 3 2 2 2 4 4 5 5 4 3 1 0 0 0 0
0 0 1 2 2 3 3 3 4 7 11 15 15 15 19 25 28 30 31 31 31 30 28 23 21 21 21 21 22 20 16 11 6 4 3 1 0 1 4 6 6 6 5 5 3 1 0 0 0
0 0 0 1 1 1 2 3 4 6 10 12 12 12 17 23 27 29 31 34 33 32 29 27 26 26 26 27 25 23 19 14 8 6 4 2 2 3 5 5 6 7 8 6 3 1 0 0 0
0 0 0 0 0 0 1 3 3 5 8 10 11 13 16 22 26 28 31 35 37 35 34 33 34 33 31 29 25 22 18 15 10 6 4 4 4 5 6 6 7 8 9 7 4 1 0 0 0
0 0 0 0 0 0 1 2 2 3 6 8 12 15 17 21 24 26 29 34 38 40 41 40 38 35 31 28 24 19 16 13 9 6 4 5 6 6 6 7 8 8 8 7 5 3 1 0 0
0 0 0 0 0 0 0 1 1 1 4 7 10 14 18 20 22 25 27 30 35 41 43 41 37 33 28 24 21 17 14 11 9 6 5 6 8 7 4 5 8 9 9 8 7 5 3 1 0
0 0 0 0 0 0 0 0 0 0 2 5 8 11 14 17 19 24 27 29 31 36 39 38 34 30 25 21 18 15 12 11 10 9 8 8 8 6 3 3 7 9 9 8 8 5 3 2 1
0 0 0 0 0 0 0 0 0 0 2 4 6 8 10 12 16 24 30 31 31 33 36 37 36 32 27 22 18 16 13 12 12 12 11 9 6 4 3 3 5 6 6 6 7 6 4 3 2
0 0 0 0 0 0 0 0 0 1 1 4 7 9 10 11 16 24 31 33 33 34 37 40 41 38 31 24 19 17 15 14 13 12 11 8 5 4 3 3 3 4 5 5 6 6 5 4 4
0 0 0 0 0 0 0 0 1 1 1 3 7 10 11 12 17 26 30 34 36 35 37 42 44 41 35 26 20 18 16 15 13 12 11 8 5 4 3 3 3 4 5 6 6 6 6 6 5
Wind_Speed
8 6 3 1 2 3 2 2 5 6 5 7 10 10 9 7 5 5 2 6 7 6 5 7 10 11 12 12 12 12 13 13 14 13 13 12 12 11 12 12 13 13 13 13 13 12 11 11 11
5 5 1 1 3 3 2 3 6 8 8 9 10 10 8 8 7 7 4 6 8 7 5 7 10 12 12 12 12 12 12 13 12 12 11 11 11 11 11 12 12 12 13 12 12 11 11 10 10
5 3 1 2 1 3 3 3 6 9 9 8 7 6 6 5 6 5 6 9 8 6 5 7 11 12 12 12 12 12 12 12 12 11 11 11 10 10 10 11 11 12 12 12 11 11 10 10 9
2 1 1 2 2 1 4 5 7 10 9 9 8 7 5 4 5 7 10 10 9 6 5 6 12 12 12 12 12 12 12 11 11 11 10 10 10 9 10 11 11 11 11 11 11 11 10 9 9
1 1 3 2 2 3 5 7 8 7 6 9 10 8 4 4 9 11 9 9 9 6 5 6 11 12 11 11 11 11 11 11 11 10 10 9 9 9 10 10 11 10 10 10 11 10 9 9 8
1 2 2 1 2 4 5 8 9 11 12 11 10 7 3 4 8 8 8 8 8 8 6 5 10 11 11 11 11 11 11 10 10 9 9 9 9 9 10 10 10 10 10 10 10 10 9 8 7
2 2 1 2 3 4 5 5 9 10 10 7 7 6 3 3 6 8 8 8 7 7 6 4 5 7 9 10 10 10 10 9 9 9 9 9 8 8 8 8 9 10 9 9 9 9 8 7 7
4 2 0 0 3 4 5 5 7 9 8 9 7 7 5 5 6 8 7 7 6 6 5 5 4 4 4 5 9 9 9 8 8 8 7 7 7 7 7 7 8 8 8 8 8 7 7 7 6
3 3 1 3 3 4 6 8 6 7 10 6 5 7 9 10 9 8 6 5 5 5 5 5 5 4 4 4 7 7 8 7 6 5 6 5 2 3 4 6 7 7 7 7 6 6 6 5 5
4 2 5 4 4 5 7 9 8 7 10 9 9 10 11 10 9 8 7 6 6 6 5 5 5 5 4 4 4 3 3 3 3 2 3 2 2 2 4 5 7 7 6 5 5 4 3 2 1
4 5 3 2 4 6 6 7 6 10 7 10 13 13 11 10 8 8 7 6 6 6 6 5 5 5 5 3 3 2 2 2 2 3 3 3 2 2 2 2 2 2 3 1 2 1 1 0 1
3 4 4 3 4 6 6 6 7 7 8 11 13 13 12 10 8 7 7 6 6 6 6 5 4 4 4 4 3 3 2 2 2 2 3 3 2 2 2 1 1 1 1 1 1 1 0 0 1
3 3 4 4 4 4 6 7 9 9 12 13 12 11 10 9 8 7 7 6 6 6 5 4 4 4 4 4 3 4 3 3 3 2 3 3 3 3 3 2 1 1 1 1 1 1 1 1 1
2 2 2 3 4 5 9 7 8 9 12 13 12 10 10 10 9 8 7 6 6 6 5 4 4 4 5 4 3 3 3 3 3 2 3 4 3 3 3 2 2 2 2 2 2 2 2 1 1
2 3 1 2 3 6 9 4 7 12 12 12 11 10 10 9 10 10 9 8 7 7 5 5 4 4 5 4 4 3 3 3 3 2 3 3 3 3 3 3 2 2 2 2 1 1 1 1 1
3 2 0 3 3 4 8 5 6 10 12 11 10 10 9 8 9 10 9 8 7 7 6 5 5 5 4 4 3 3 3 3 3 2 2 3 3 3 3 2 2 1 1 2 1 1 1 1 1
2 0 2 3 3 3 5 5 8 9 12 10 9 10 9 8 7 7 8 8 8 7 7 5 5 4 4 3 3 3 3 3 2 2 2 2 3 3 3 2 1 1 1 1 2 1 1 1 1
4 2 2 3 2 4 4 5 8 10 12 11 10 9 9 10 8 8 8 8 7 7 7 6 5 4 3 3 3 2 2 2 1 1 2 2 2 3 2 2 2 2 1 1 1 1 1 1 1
4 2 3 3 3 4 4 4 6 7 8 9 9 9 10 10 8 8 8 9 8 7 6 5 5 4 3 2 2 2 1 1 1 1 2 2 3 3 2 2 1 1 2 2 2 1 1 1 1
3 3 3 2 1 3 3 2 3 6 9 10 11 11 11 9 8 9 9 9 7 7 7 6 5 5 4 3 2 2 2 1 1 1 1 2 3 3 3 2 2 2 1 1 1 1 1 1 1
4 4 4 2 2 3 4 2 1 2 4 6 8 9 10 12 12 10 10 8 8 8 8 7 6 5 5 4 2 2 2 2 1 1 0 1 2 2 1 2 2 2 2 2 2 2 2 1 1
4 5 5 3 3 1 2 1 4 3 3 5 6 8 10 11 10 11 10 10 10 9 8 6 6 6 5 4 4 4 3 2 2 2 1 1 1 2 2 1 1 2 2 1 2 2 2 2 1
5 3 2 2 3 1 1 3 5 1 3 5 7 9 10 11 13 13 12 12 10 9 8 6 6 5 5 5 5 4 3 2 2 1 1 1 1 1 1 1 1 1 1 1 1 1 1 2 2
3 3 5 6 5 1 3 4 5 5 8 7 7 8 9 10 11 10 9 9 8 7 6 6 6 5 4 5 5 5 5 4 3 2 2 1 1 1 1 1 1 2 1 2 2 2 1 1 1
3 6 4 6 4 5 3 2 6 6 7 8 8 8 8 8 8 8 9 9 8 8 8 7 7 5 5 5 4 4 5 5 4 3 3 2 1 1 2 2 1 2 2 2 2 2 2 1 2
3 8 7 4 4 5 2 2 5 3 5 6 7 7 8 9 8 8 9 9 9 9 8 9 8 6 6 5 4 4 4 3 3 3 3 3 2 2 2 2 2 2 2 2 2 1 2 1 2
3 3 8 7 2 0 2 2 4 2 4 5 6 6 7 8 9 8 7 8 9 9 9 9 9 6 6 6 5 4 4 4 3 2 2 2 2 2 2 2 2 1 1 1 1 1 2 1 1
5 6 5 5 4 1 3 2 3 2 1 3 4 5 5 6 7 7 6 6 6 7 6 7 7 7 6 6 5 5 4 4 3 2 2 2 2 1 1 1 1 1 1 1 1 1 2 1 2
0 3 5 4 5 6 2 5 5 6 5 5 4 5 7 7 8 8 7 6 6 6 6 5 5 5 5 5 4 4 3 3 3 2 2 2 1 2 2 2 2 2 2 1 1 1 2 2 2
4 4 6 5 3 4 4 6 4 4 4 5 5 4 5 7 7 8 7 6 6 6 6 5 5 5 5 5 4 4 3 3 3 2 2 2 2 2 2 2 2 2 2 2 2 2 2 2 2
Wind_Direction
177 174 177 192 34 40 51 69 97 80 64 63 73 80 79 65 83 119 175 140 136 138 139 131 123 119 117 116 113 112 112 112 114 115 116 120 123 128 132 136 138 140 142 143 145 144 142 140 137
168 169 188 51 70 70 54 94 87 98 117 105 80 77 75 70 82 111 130 141 135 134 135 132 127 123 120 118 116 115 114 114 115 117 119 121 124 127 133 138 140 141 143 144 146 146 144 141 139
182 184 166 69 84 135 124 120 110 108 109 97 86 63 67 88 98 123 151 143 131 128 133 138 132 126 124 121 119 117 117 117 118 118 117 118 121 125 132 138 142 143 145 149 149 149 147 144 144
163 132 29 65 85 132 127 127 110 104 91 84 93 72 61 88 115 135 138 135 130 132 138 141 134 130 127 125 123 121 119 117 117 117 116 117 119 125 134 138 142 144 148 152 152 152 152 150 148
118 86 49 38 78 99 116 118 115 104 91 94 94 94 76 78 115 130 137 137 136 140 144 143 138 135 132 129 127 124 121 118 116 115 118 121 124 129 135 138 142 145 148 151 153 154 153 149 146
81 75 67 73 95 89 103 117 108 99 110 109 103 104 99 121 123 137 140 142 142 145 145 145 144 140 137 134 133 130 126 123 121 118 121 121 121 124 131 135 141 146 147 150 153 156 152 148 149
120 94 158 152 112 110 120 114 111 121 120 119 119 101 120 129 131 135 137 135 137 139 140 140 146 144 141 141 141 138 134 131 128 126 126 125 125 126 127 135 140 147 148 149 150 152 153 158 157
158 111 6 116 131 137 135 111 117 117 118 124 119 121 153 169 132 124 125 128 135 136 142 147 146 141 144 147 152 147 144 140 136 136 135 133 135 134 133 134 138 144 146 148 152 155 158 164 161
129 85 198 198 156 148 134 112 105 90 105 106 97 122 147 143 127 119 113 115 132 140 153 154 155 157 159 157 158 152 150 149 143 144 146 141 129 130 135 139 145 149 147 147 156 162 164 166 169
122 156 214 203 157 145 134 127 125 105 100 99 100 112 128 132 132 131 134 138 145 151 159 161 162 171 171 169 155 155 151 145 137 135 140 134 132 139 141 144 146 147 149 152 157 157 155 160 166
160 192 200 168 145 137 127 120 114 121 117 139 139 142 142 140 139 140 142 142 150 155 152 153 160 169 172 160 155 159 150 141 139 137 138 135 130 129 122 126 134 134 141 140 139 131 98 132 171
162 220 196 172 150 128 129 129 112 123 144 151 146 146 147 148 152 151 145 142 137 135 143 149 153 155 158 150 157 155 151 146 146 144 135 135 131 133 137 138 144 134 131 134 131 127 146 217 215
173 213 180 165 127 124 116 118 117 126 137 142 141 143 148 150 149 146 144 137 131 131 136 138 136 140 146 140 147 143 149 147 152 140 141 139 142 147 144 145 150 149 147 152 166 176 199 213 240
220 163 160 151 135 136 123 118 113 145 144 145 147 151 151 151 147 140 139 139 140 141 144 143 131 130 126 124 127 133 137 139 132 132 140 142 142 144 142 146 151 165 169 175 184 194 201 216 215
74 63 336 213 159 158 125 109 146 159 149 149 155 154 150 152 147 149 153 150 149 147 144 145 141 122 119 121 126 128 131 130 131 138 136 137 143 149 144 144 158 178 164 157 157 202 212 211 206
28 50 256 253 169 169 126 155 172 160 151 156 160 156 150 152 153 154 152 146 144 140 139 145 137 124 123 123 124 123 128 128 134 139 137 152 157 151 141 146 169 170 144 145 161 179 190 213 212
19 357 254 270 212 160 126 168 178 167 157 162 162 158 152 150 147 151 153 150 148 145 141 135 125 130 133 125 121 119 118 122 130 132 142 152 147 141 147 159 169 164 152 172 193 167 176 195 230
243 232 249 227 221 131 126 165 176 175 168 167 163 160 156 159 165 157 153 153 149 145 142 140 134 135 129 112 100 92 87 97 111 128 149 152 141 144 149 154 167 157 141 189 197 185 194 200 211
219 215 253 249 158 115 140 158 179 174 171 167 167 166 165 169 165 151 154 157 147 143 145 149 144 144 131 116 117 118 124 127 124 138 147 145 155 160 149 156 162 149 160 198 199 171 189 224 158
217 216 244 292 126 114 143 189 188 171 178 175 172 172 170 160 154 160 163 160 156 157 158 158 158 156 157 155 152 150 144 142 137 117 116 153 164 158 154 155 170 166 167 205 207 162 170 213 157
254 198 197 189 49 53 89 351 281 219 167 163 165 168 167 166 170 173 169 167 162 167 170 169 170 166 164 154 129 107 82 69 64 82 152 197 174 167 162 172 170 173 171 193 210 186 172 202 245
259 226 171 159 109 278 131 211 271 207 182 173 169 169 175 173 172 174 172 172 173 176 175 171 170 167 165 152 143 143 144 160 195 192 194 194 166 165 165 169 181 186 177 186 220 195 176 164 218
215 206 130 136 117 30 12 127 272 211 197 205 191 183 180 178 176 179 178 176 176 173 170 170 165 166 161 153 152 148 151 167 167 156 165 196 228 199 191 181 187 193 187 195 208 203 183 174 187
175 57 30 44 67 354 249 157 257 221 201 196 196 188 185 178 176 176 172 162 163 163 157 159 160 168 166 158 152 152 154 155 149 157 179 217 260 268 252 222 210 207 203 204 202 201 197 190 187
83 84 34 6 10 261 264 153 246 222 191 182 184 181 173 162 164 167 165 164 163 161 163 166 165 173 176 165 164 164 163 164 172 180 190 193 211 242 255 238 220 221 218 213 206 203 216 204 203
190 135 152 184 221 274 324 224 262 222 177 164 158 156 160 157 159 168 171 166 165 168 169 172 175 177 175 170 173 171 166 167 174 181 179 190 207 220 230 222 225 227 217 211 200 212 232 221 224
162 168 165 141 162 316 296 292 318 22 102 135 141 143 161 162 158 162 164 165 168 173 179 177 176 176 176 175 172 172 172 171 176 181 176 195 209 213 216 212 215 226 216 210 194 215 243 246 245
162 153 98 111 144 244 294 265 234 247 176 136 129 143 151 153 151 153 160 164 163 169 172 171 169 174 175 174 178 179 182 183 178 172 186 197 214 218 199 219 220 217 203 200 197 224 243 237 259
60 89 109 119 146 153 219 270 227 200 177 157 156 153 153 155 157 161 165 160 154 149 147 158 166 165 166 171 174 173 177 179 170 176 196 199 209 206 202 208 207 210 210 206 188 224 222 221 259
154 164 145 150 215 161 156 260 263 188 169 155 158 153 152 161 162 163 159 149 148 153 153 161 172 173 174 170 164 169 171 165 167 186 201 191 205 224 215 206 208 216 218 218 203 220 235 222 236